Location: Newark
(44.6768°N, 22.5302°E)
Time: 03:33:29
(UTC+00:00)

CAS-6 - Pass Details

Date: 28 June 2022
Orbit: 613 x 634 km, 97.9° (Epoch: 13 August)

Event Time Altitude Azimuth Distance (km) Brightness Sun altitude
Exits shadow 19:05:44 - 99° (E) 2,525 ? -7.2°
Reaches altitude 10° 19:08:44 10° 66° (ENE) 2,008 ? -7.6°
Maximum altitude 19:09:20 10° 58° (ENE) 1,990 ? -7.7°
Drops below altitude 10° 19:09:56 10° 50° (NE) 2,008 ? -7.8°
Sets 19:14:15 0° 9° (N) 2,915 ? -8.3°
